FW1256 Weather Reports


time (UTC)temp
C
wind
direction
speed
KPH
gust
KPH
rain 1hr
cm
rain 24hr
cm
rain mn
cm
humidity
%
barometer
mb
20260906022714 25 203 0.0 3.2 0.00 0.00 0.00 85 1015.0
20260906022209 25 325 0.0 3.2 0.00 0.00 0.00 85 1014.8
20260906021705 25 152 0.0 4.8 0.00 0.00 0.00 84 1015.0
20260906021204 25 45 0.0 3.2 0.00 0.00 0.00 84 1014.6
20260906020659 25 287 0.0 3.2 0.00 0.00 0.00 84 1015.3
20260906020154 25 148 0.0 4.8 0.00 0.00 0.00 83 1014.8
20260906015648 25 228 0.0 4.8 0.00 0.00 0.00 83 1014.6
20260906015146 26 247 4.8 4.8 0.00 0.00 0.00 83 1014.5
20260906014641 26 10 0.0 4.8 0.00 0.00 0.00 82 1014.5
20260906014137 26 188 4.8 4.8 0.00 0.00 0.00 82 1014.5
20260906013633 26 148 0.0 6.4 0.00 0.00 0.00 82 1014.5
20260906013128 26 152 3.2 4.8 0.00 0.00 0.00 81 1014.6
20260906012628 26 270 0.0 14.5 0.00 0.00 0.00 81 1014.2
20260906012122 26 239 0.0 3.2 0.00 0.00 0.00 81 1014.3
20260906011619 27 0 0.0 8.0 0.00 0.00 0.00 80 1014.3
20260906011118 27 117 4.8 4.8 0.00 0.00 0.00 80 1014.2
20260906010614 27 188 0.0 3.2 0.00 0.00 0.00 79 1014.2
20260906010110 27 161 0.0 3.2 0.00 0.00 0.00 79 1014.0
20260906005604 27 270 0.0 4.8 0.00 0.00 0.00 79 1013.6
20260906005103 27 0 0.0 3.2 0.00 0.00 0.00 79 1013.9
20260906004602 27 172 0.0 3.2 0.00 0.00 0.00 79 1013.8
20260906004057 27 352 0.0 4.8 0.00 0.00 0.00 79 1013.7
20260906003552 28 209 0.0 1.6 0.00 0.00 0.00 79 1013.8
20260906003049 28 325 0.0 3.2 0.00 0.00 0.00 78 1013.8
20260906002549 28 261 1.6 4.8 0.00 0.00 0.00 77 1013.8
20260906002044 28 291 0.0 3.2 0.00 0.00 0.00 77 1013.7
20260906001539 28 203 0.0 3.2 0.00 0.00 0.00 77 1013.9
20260906001033 29 294 0.0 1.6 0.00 0.00 0.00 77 1013.8
20260906000529 29 246 0.0 4.8 0.00 0.00 0.00 76 1013.7
20260906000024 30 243 0.0 1.6 0.00 0.00 0.00 75 1013.7
20260905235518 30 18 0.0 3.2 0.00 0.00 0.00 74 1013.7
20260905235013 31 270 0.0 1.6 0.00 0.00 0.00 73 1013.5
20260905234509 31 315 0.0 3.2 0.00 0.00 0.00 72 1013.4
20260905234009 31 348 1.6 4.8 0.00 0.00 0.00 72 1013.3
20260905233504 31 286 0.0 3.2 0.00 0.00 0.00 71 1013.3
20260905233003 32 325 0.0 1.6 0.00 0.00 0.00 70 1013.2
20260905232459 32 270 0.0 1.6 0.00 0.00 0.00 68 1013.2
20260905231954 33 106 0.0 1.6 0.00 0.00 0.00 66 1013.3
20260905231450 32 0 0.0 0.0 0.00 0.00 0.00 67 1012.9
20260905230946 32 352 0.0 3.2 0.00 0.00 0.00 67 1013.1
20260905230444 33 320 0.0 4.8 0.00 0.00 0.00 67 1013.2
20260905225943 34 337 0.0 3.2 0.00 0.00 0.00 64 1013.2
20260905225438 35 278 1.6 3.2 0.00 0.00 0.00 62 1013.1
20260905224933 35 262 1.6 3.2 0.00 0.00 0.00 63 1013.2
20260905224429 34 283 1.6 4.8 0.00 0.00 0.00 66 1013.3
20260905223922 34 246 0.0 4.8 0.00 0.00 0.00 64 1013.1
20260905223421 35 228 0.0 6.4 0.00 0.00 0.00 63 1013.1
20260905222921 35 289 3.2 3.2 0.00 0.00 0.00 63 1013.0
20260905222420 35 270 0.0 1.6 0.00 0.00 0.00 63 1013.3
20260905221916 35 270 3.2 3.2 0.00 0.00 0.00 64 1013.2
20260905221413 35 257 0.0 4.8 0.00 0.00 0.00 64 1013.2
20260905220909 34 282 0.0 6.4 0.00 0.00 0.00 67 1013.2
20260905220404 33 263 0.0 4.8 0.00 0.00 0.00 69 1013.2
20260905215903 33 279 0.0 3.2 0.00 0.00 0.00 68 1013.1
20260905215359 32 331 3.2 4.8 0.00 0.00 0.00 72 1013.3
20260905214855 32 279 1.6 1.6 0.00 0.00 0.00 74 1013.2
20260905214350 32 270 0.0 1.6 0.00 0.00 0.00 75 1013.2
20260905213845 32 289 3.2 3.2 0.00 0.00 0.00 73 1013.3
20260905213342 32 286 0.0 4.8 0.00 0.00 0.00 72 1013.1
20260905212841 33 258 0.0 4.8 0.00 0.00 0.00 70 1013.1
20260905212336 33 270 0.0 3.2 0.00 0.00 0.00 69 1013.3
20260905211836 33 352 0.0 3.2 0.00 0.00 0.00 69 1012.9
20260905211331 32 249 1.6 3.2 0.00 0.00 0.00 71 1013.3
20260905210827 32 337 0.0 1.6 0.00 0.00 0.00 72 1013.2
20260905210322 32 180 3.2 3.2 0.00 0.00 0.00 69 1013.2
20260905205821 33 346 1.6 3.2 0.00 0.00 0.00 68 1013.1
20260905205316 34 304 4.8 4.8 0.00 0.00 0.00 67 1013.2
20260905204815 34 279 0.0 8.0 0.00 0.00 0.00 64 1013.3
20260905204311 34 270 0.0 3.2 0.00 0.00 0.00 66 1013.4
20260905203810 33 341 3.2 4.8 0.00 0.00 0.00 68 1013.2
20260905203306 34 308 3.2 3.2 0.00 0.00 0.00 66 1013.3
20260905202801 34 348 4.8 4.8 0.00 0.00 0.00 64 1013.2
20260905202256 34 216 3.2 3.2 0.00 0.00 0.00 63 1013.3
20260905201751 33 282 4.8 9.7 0.00 0.00 0.00 65 1013.5
20260905201246 33 276 3.2 4.8 0.00 0.00 0.00 67 1013.4
20260905200741 33 282 3.2 3.2 0.00 0.00 0.00 72 1013.7
20260905200237 33 307 0.0 3.2 0.00 0.00 0.00 67 1013.5
20260905195735 33 315 3.2 6.4 0.00 0.00 0.00 67 1013.6
20260905195230 35 8 3.2 4.8 0.00 0.00 0.00 62 1013.5
20260905194726 34 323 0.0 3.2 0.00 0.00 0.00 67 1013.5
20260905194225 33 180 0.0 4.8 0.00 0.00 0.00 66 1013.5
20260905193719 33 352 0.0 1.6 0.00 0.00 0.00 68 1013.4
20260905193214 33 278 0.0 3.2 0.00 0.00 0.00 68 1013.5
20260905192710 33 251 0.0 4.8 0.00 0.00 0.00 66 1013.6
20260905192206 33 335 6.4 6.4 0.00 0.00 0.00 62 1013.8
20260905191706 34 337 0.0 4.8 0.00 0.00 0.00 66 1013.6
20260905191203 34 300 0.0 4.8 0.00 0.00 0.00 63 1013.8
20260905190703 34 236 3.2 4.8 0.00 0.00 0.00 62 1013.7
20260905190201 33 354 0.0 3.2 0.00 0.00 0.00 65 1013.6
20260905185701 33 270 0.0 3.2 0.00 0.00 0.00 66 1013.7
20260905185155 33 270 3.2 3.2 0.00 0.00 0.00 66 1013.8
20260905184655 34 248 0.0 3.2 0.00 0.00 0.00 62 1013.8
20260905184154 34 270 0.0 3.2 0.00 0.00 0.00 63 1013.9
20260905183648 34 209 0.0 3.2 0.00 0.00 0.00 61 1013.9
20260905183143 35 287 3.2 4.8 0.00 0.00 0.00 61 1014.0
20260905182643 35 279 0.0 4.8 0.00 0.00 0.00 61 1014.1
20260905182143 35 270 0.0 4.8 0.00 0.00 0.00 62 1013.9
20260905181638 35 243 3.2 8.0 0.00 0.00 0.00 63 1014.1
20260905181137 34 311 0.0 8.0 0.00 0.00 0.00 66 1013.8
20260905180632 34 255 4.8 6.4 0.00 0.00 0.00 63 1014.1
20260905180127 33 265 3.2 9.7 0.00 0.00 0.00 62 1014.2
20260905175626 34 90 1.6 4.8 0.00 0.00 0.00 65 1014.2
20260905175122 33 294 0.0 6.4 0.00 0.00 0.00 62 1014.1
20260905174617 33 259 6.4 6.4 0.00 0.00 0.00 63 1014.4
20260905174113 33 285 4.8 6.4 0.00 0.00 0.00 65 1014.3
20260905173609 33 159 3.2 6.4 0.00 0.00 0.00 63 1014.5
20260905173104 33 282 0.0 6.4 0.00 0.00 0.00 65 1014.4
20260905172603 33 246 4.8 8.0 0.00 0.00 0.00 64 1014.1
20260905172058 33 308 3.2 4.8 0.00 0.00 0.00 65 1014.2
20260905171554 34 277 4.8 4.8 0.00 0.00 0.00 62 1014.2
20260905171050 33 287 3.2 8.0 0.00 0.00 0.00 62 1014.5
20260905170547 33 273 6.4 8.0 0.00 0.00 0.00 62 1014.5
20260905170041 33 159 3.2 6.4 0.00 0.00 0.00 61 1014.5
20260905165536 33 255 1.6 6.4 0.00 0.00 0.00 64 1014.5
20260905165032 33 206 4.8 4.8 0.00 0.00 0.00 63 1014.5
20260905164526 33 319 4.8 4.8 0.00 0.00 0.00 65 1014.7
20260905164021 33 307 3.2 8.0 0.00 0.00 0.00 61 1014.6
20260905163517 34 0 3.2 3.2 0.00 0.00 0.00 62 1014.4
20260905163013 33 276 3.2 6.4 0.00 0.00 0.00 61 1014.6
20260905162508 33 215 1.6 4.8 0.00 0.00 0.00 62 1014.7
20260905162003 33 270 0.0 4.8 0.00 0.00 0.00 62 1014.8
20260905161503 33 294 1.6 4.8 0.00 0.00 0.00 63 1014.5
20260905161000 32 285 4.8 8.0 0.00 0.00 0.00 65 1014.2
20260905160454 32 264 4.8 8.0 0.00 0.00 0.00 66 1014.5
20260905155954 32 328 3.2 4.8 0.00 0.00 0.00 65 1014.4
20260905155449 32 246 3.2 4.8 0.00 0.00 0.00 67 1014.4
20260905154947 32 236 3.2 4.8 0.00 0.00 0.00 67 1014.5
20260905154442 32 192 4.8 6.4 0.00 0.00 0.00 67 1014.4
20260905153938 32 326 3.2 4.8 0.00 0.00 0.00 66 1014.4
20260905153434 32 246 1.6 4.8 0.00 0.00 0.00 67 1014.1
20260905152933 32 270 0.0 6.4 0.00 0.00 0.00 67 1014.3
20260905152433 32 187 1.6 6.4 0.00 0.00 0.00 70 1014.6
20260905151928 32 270 3.2 4.8 0.00 0.00 0.00 68 1014.3
20260905151424 32 281 4.8 4.8 0.00 0.00 0.00 66 1014.4
20260905150919 31 246 0.0 3.2 0.00 0.00 0.00 69 1014.2
20260905150419 31 261 0.0 11.3 0.00 0.00 0.00 70 1014.1
20260905145915 31 258 3.2 4.8 0.00 0.00 0.00 72 1014.3
20260905145410 31 105 0.0 4.8 0.00 0.00 0.00 70 1014.1
20260905144909 30 348 0.0 1.6 0.00 0.00 0.00 74 1014.5
20260905144405 30 337 0.0 3.2 0.00 0.00 0.00 76 1014.3
20260905143904 30 279 0.0 4.8 0.00 0.00 0.00 76 1014.1
20260905143358 30 246 3.2 4.8 0.00 0.00 0.00 78 1014.0
20260905142857 29 234 0.0 3.2 0.00 0.00 0.00 78 1013.9
20260905142356 28 328 0.0 3.2 0.00 0.00 0.00 79 1013.9
20260905141852 28 261 0.0 3.2 0.00 0.00 0.00 82 1013.9
20260905141347 28 277 0.0 3.2 0.00 0.00 0.00 82 1013.9
20260905140843 27 326 0.0 3.2 0.00 0.00 0.00 82 1013.8
20260905140343 27 345 0.0 1.6 0.00 0.00 0.00 83 1013.7
20260905135841 27 90 0.0 0.0 0.00 0.00 0.00 84 1013.8
20260905135332 27 90 0.0 3.2 0.00 0.00 0.00 84 1014.0
20260905134827 26 180 0.0 0.0 0.00 0.00 0.00 86 1013.9
20260905134320 26 180 0.0 0.0 0.00 0.00 0.00 87 1014.1
20260905133815 26 328 0.0 0.0 0.00 0.00 0.00 88 1014.0
20260905133310 26 328 0.0 3.2 0.00 0.00 0.00 88 1014.1
20260905132809 26 261 0.0 3.2 0.00 0.00 0.00 89 1014.0
20260905132306 25 294 0.0 3.2 0.00 0.00 0.00 90 1014.1
20260905131759 25 283 0.0 1.6 0.00 0.00 0.00 91 1014.0
20260905131255 25 270 0.0 1.6 0.00 0.00 0.00 92 1014.0
20260905130749 25 270 0.0 0.0 0.00 0.00 0.00 93 1013.7
20260905130249 24 346 0.0 0.0 0.00 0.00 0.00 93 1013.9
20260905125744 24 345 0.0 1.6 0.00 0.00 0.00 94 1014.1
20260905125239 23 320 0.0 0.0 0.00 0.00 0.00 94 1013.8
20260905124736 23 320 0.0 3.2 0.00 0.00 0.00 94 1013.7
20260905124231 23 279 0.0 0.0 0.00 0.00 0.00 94 1013.6
20260905123726 23 352 0.0 0.0 0.00 0.00 0.00 94 1013.7
20260905123223 23 352 0.0 0.0 0.00 0.00 0.00 94 1013.9
20260905122723 23 352 0.0 0.0 0.00 0.00 0.00 94 1013.8
20260905122223 23 352 0.0 0.0 0.00 0.00 0.00 94 1013.5
20260905121718 23 0 0.0 0.0 0.00 0.00 0.00 94 1013.8
20260905121214 22 261 0.0 0.0 0.00 0.00 0.00 94 1013.6
20260905120713 22 345 0.0 0.0 0.00 0.00 0.00 94 1013.6
20260905120208 22 0 0.0 0.0 0.00 0.00 0.00 94 1013.6
20260905115708 22 0 1.6 1.6 0.00 0.00 0.00 94 1013.5
20260905115203 22 337 0.0 0.0 0.00 0.00 0.00 94 1013.4
20260905114702 22 337 0.0 0.0 0.00 0.00 0.00 94 1013.5
20260905114201 22 337 0.0 1.6 0.00 0.00 0.00 94 1013.4
20260905113655 22 352 0.0 0.0 0.00 0.00 0.00 94 1013.2
20260905113151 22 352 0.0 0.0 0.00 0.00 0.00 94 1013.4
20260905112650 22 352 0.0 0.0 0.00 0.00 0.00 94 1013.1
20260905112146 22 352 0.0 0.0 0.00 0.00 0.00 94 1013.1
20260905111646 22 352 0.0 0.0 0.00 0.00 0.00 94 1013.1
20260905111145 23 352 0.0 0.0 0.00 0.00 0.00 94 1013.2
20260905110644 23 90 0.0 0.0 0.00 0.00 0.00 94 1013.2
20260905110139 23 0 0.0 1.6 0.00 0.00 0.00 94 1013.1
20260905105635 23 0 0.0 1.6 0.00 0.00 0.00 94 1013.1
20260905105134 23 0 0.0 0.0 0.00 0.00 0.00 94 1013.1
20260905104629 23 0 0.0 0.0 0.00 0.00 0.00 94 1013.2
20260905104125 23 0 0.0 0.0 0.00 0.00 0.00 94 1013.3
20260905103620 23 0 0.0 0.0 0.00 0.00 0.00 94 1013.2
20260905103116 23 0 0.0 0.0 0.00 0.00 0.00 94 1013.4
20260905102611 23 0 0.0 0.0 0.00 0.00 0.00 94 1013.5
20260905102108 23 0 0.0 0.0 0.00 0.00 0.00 94 1013.1
20260905101606 23 0 0.0 0.0 0.00 0.00 0.00 94 1013.2
20260905101104 23 0 0.0 0.0 0.00 0.00 0.00 94 1013.1
20260905100601 23 0 0.0 0.0 0.00 0.00 0.00 94 1013.2
20260905100055 23 0 0.0 0.0 0.00 0.00 0.00 94 1013.2
20260905095549 23 345 0.0 0.0 0.00 0.00 0.00 94 1013.2
20260905095045 23 5 0.0 0.0 0.00 0.00 0.00 94 1013.3
20260905094539 23 5 0.0 0.0 0.00 0.00 0.00 94 1013.2
20260905094039 23 5 0.0 0.0 0.00 0.00 0.00 94 1013.1
20260905093533 23 5 0.0 0.0 0.00 0.00 0.00 94 1013.1
20260905093030 23 5 0.0 0.0 0.00 0.00 0.00 94 1013.2
20260905092530 23 5 0.0 0.0 0.00 0.00 0.00 94 1013.3
20260905092026 23 5 0.0 0.0 0.00 0.00 0.00 94 1013.2
20260905091524 23 0 0.0 0.0 0.00 0.00 0.00 94 1013.3
20260905091019 23 270 0.0 0.0 0.00 0.00 0.00 94 1013.3
20260905090519 23 270 0.0 0.0 0.00 0.00 0.00 94 1013.1
20260905090014 23 6 0.0 0.0 0.00 0.00 0.00 94 1013.1
20260905085512 23 6 0.0 0.0 0.00 0.00 0.00 94 1013.4
20260905085009 23 6 0.0 0.0 0.00 0.00 0.00 94 1013.3
20260905084503 23 0 0.0 0.0 0.00 0.00 0.00 94 1013.2
20260905083957 23 0 0.0 0.0 0.00 0.00 0.00 94 1013.4
20260905083453 23 352 0.0 0.0 0.00 0.00 0.00 94 1013.2
20260905082949 23 352 0.0 0.0 0.00 0.00 0.00 94 1013.2
20260905082444 23 352 0.0 0.0 0.00 0.00 0.00 94 1013.1
20260905081939 23 352 0.0 0.0 0.00 0.00 0.00 94 1013.3
20260905081434 23 352 0.0 0.0 0.00 0.00 0.00 94 1013.4
20260905080933 23 352 0.0 1.6 0.00 0.00 0.00 94 1013.4
20260905080428 23 294 0.0 1.6 0.00 0.00 0.00 94 1013.3
20260905075927 23 0 0.0 0.0 0.00 0.00 0.00 94 1013.5
20260905075421 23 0 0.0 0.0 0.00 0.00 0.00 94 1013.5
20260905074920 23 0 0.0 0.0 0.00 0.00 0.00 94 1013.7
20260905074416 23 345 0.0 0.0 0.00 0.00 0.00 94 1013.3
20260905073912 23 345 0.0 0.0 0.00 0.00 0.00 94 1013.4
20260905073407 23 345 0.0 0.0 0.00 0.00 0.00 94 1013.7
20260905072902 23 345 0.0 0.0 0.00 0.00 0.00 94 1013.6
20260905072356 23 345 0.0 0.0 0.00 0.00 0.00 94 1013.5
20260905071853 23 345 0.0 0.0 0.00 0.00 0.00 94 1013.6
20260905071349 23 345 0.0 0.0 0.00 0.00 0.00 94 1013.6
20260905070843 23 345 0.0 1.6 0.00 0.00 0.00 94 1013.5
20260905070340 24 320 0.0 0.0 0.00 0.00 0.00 94 1013.8
20260905065839 24 320 0.0 0.0 0.00 0.00 0.00 94 1013.7
20260905065337 24 320 0.0 0.0 0.00 0.00 0.00 94 1013.6
20260905064832 24 320 0.0 0.0 0.00 0.00 0.00 94 1013.8
20260905064328 24 320 0.0 0.0 0.00 0.00 0.00 94 1013.7
20260905063826 24 320 0.0 0.0 0.00 0.00 0.00 94 1013.6
20260905063322 23 320 0.0 0.0 0.00 0.00 0.00 93 1013.9
20260905062818 24 320 0.0 0.0 0.00 0.00 0.00 93 1013.8
20260905062313 24 320 0.0 0.0 0.00 0.00 0.00 93 1014.0
20260905061808 24 345 0.0 0.0 0.00 0.00 0.00 93 1014.1
20260905061302 24 8 0.0 0.0 0.00 0.00 0.00 93 1013.9
20260905060757 24 0 0.0 0.0 0.00 0.00 0.00 93 1013.7
20260905060254 24 0 0.0 0.0 0.00 0.00 0.00 93 1014.0
20260905055752 24 0 0.0 0.0 0.00 0.00 0.00 93 1014.0
20260905055247 24 0 0.0 0.0 0.00 0.00 0.00 93 1014.0
20260905054742 24 0 0.0 0.0 0.00 0.00 0.00 93 1014.0
20260905054238 24 286 0.0 0.0 0.00 0.00 0.00 93 1014.0
20260905053737 24 286 0.0 0.0 0.00 0.00 0.00 93 1013.9
20260905053233 24 286 0.0 0.0 0.00 0.00 0.00 92 1013.9
20260905052732 24 353 0.0 0.0 0.00 0.00 0.00 92 1013.7
20260905052227 24 286 0.0 1.6 0.00 0.00 0.00 92 1013.6
20260905051727 25 337 0.0 0.0 0.00 0.00 0.00 92 1013.5
20260905051224 25 354 1.6 1.6 0.00 0.00 0.00 92 1013.7
20260905050720 25 294 0.0 0.0 0.00 0.00 0.00 92 1013.8
20260905050217 25 286 0.0 1.6 0.00 0.00 0.00 92 1014.1
20260905045716 25 172 0.0 0.0 0.00 0.00 0.00 92 1014.0
20260905045211 25 345 0.0 0.0 0.00 0.00 0.00 92 1013.8
20260905044706 25 345 0.0 0.0 0.00 0.00 0.00 91 1013.8
20260905044201 25 345 0.0 0.0 0.00 0.00 0.00 91 1013.9
20260905043700 25 345 0.0 0.0 0.00 0.00 0.00 91 1013.9
20260905043155 25 345 0.0 0.0 0.00 0.00 0.00 91 1013.8
20260905042654 25 294 0.0 0.0 0.00 0.00 0.00 91 1013.8
20260905042149 25 7 0.0 1.6 0.00 0.00 0.00 90 1013.6
20260905041644 25 0 0.0 0.0 0.00 0.00 0.00 90 1013.6
20260905041140 25 345 0.0 0.0 0.00 0.00 0.00 90 1013.6
20260905040635 25 345 0.0 1.6 0.00 0.00 0.00 90 1013.7
20260905040133 25 354 0.0 0.0 0.00 0.00 0.00 90 1013.7
20260905035629 25 354 0.0 0.0 0.00 0.00 0.00 89 1013.8
20260905035125 25 354 0.0 0.0 0.00 0.00 0.00 88 1013.8
20260905034621 25 354 0.0 0.0 0.00 0.00 0.00 88 1013.7
20260905034120 25 354 0.0 0.0 0.00 0.00 0.00 89 1013.5
20260905033620 25 354 0.0 1.6 0.00 0.00 0.00 89 1013.6
20260905033116 25 172 0.0 0.0 0.00 0.00 0.00 89 1013.5
20260905032615 25 172 0.0 0.0 0.00 0.00 0.00 89 1013.6
20260905032110 25 172 0.0 0.0 0.00 0.00 0.00 90 1014.1
20260905031606 25 172 0.0 0.0 0.00 0.00 0.00 90 1013.9
20260905031106 25 172 0.0 0.0 0.00 0.00 0.00 90 1013.8
20260905030601 25 172 0.0 0.0 0.00 0.00 0.00 90 1013.9
20260905030056 25 172 0.0 0.0 0.00 0.00 0.00 90 1013.8
20260905025551 25 172 0.0 0.0 0.00 0.00 0.00 90 1014.1
20260905025047 25 172 0.0 0.0 0.00 0.00 0.00 90 1013.8
20260905024542 25 346 0.0 0.0 0.00 0.00 0.00 90 1013.8
20260905024038 26 346 0.0 0.0 0.00 0.00 0.00 90 1013.9
20260905023532 26 345 0.0 0.0 0.00 0.00 0.00 90 1013.9
20260905023027 26 345 0.0 0.0 0.00 0.00 0.00 90 1013.9